Location: Unspecified
(43.3116°N, 2.0147°W)
Time: 05:07:21
(UTC+02:00)

ISS - Visible Passes

Search period start: 04 July 2022 00:00
Search period end: 14 July 2022 00:00
Orbit: 414 x 420 km, 51.6° (Epoch: 03 July)

Date Brightness Start Highest point End Pass type
(mag) Time Alt. Az. Time Alt. Az. Time Alt. Az.
04 Jul -1.0 02:35:12 13° ENE 02:35:12 13° ENE 02:35:40 10° ENE visible
04 Jul -2.7 04:08:05 28° WNW 04:09:21 41° NNW 04:12:34 10° NE visible
04 Jul -1.2 05:44:10 10° NW 05:46:44 20° N 05:49:18 10° NE visible
05 Jul -3.2 03:21:22 58° N 03:21:22 58° N 03:24:24 10° NE visible
05 Jul -1.4 04:55:38 10° WNW 04:58:19 22° N 05:01:00 10° NE visible
06 Jul -1.9 02:34:36 26° ENE 02:34:36 26° ENE 02:36:11 10° ENE visible
06 Jul -1.6 04:07:28 12° WNW 04:09:54 25° NNW 04:12:46 10° NE visible
06 Jul -1.1 05:44:52 10° NW 05:47:26 20° N 05:50:02 10° NE visible
07 Jul -0.9 01:47:44 11° ENE 01:47:44 11° ENE 01:47:54 10° ENE visible
07 Jul -2.1 03:20:36 27° NW 03:21:31 31° NNW 03:24:35 10° NE visible
07 Jul -1.0 04:56:28 10° NW 04:59:00 19° N 05:01:31 10° NE visible
08 Jul -2.4 02:33:39 39° N 02:33:39 39° N 02:36:23 10° NE visible
08 Jul -1.1 04:07:58 10° NW 04:10:31 20° N 04:13:06 10° NE visible
08 Jul -1.3 05:45:12 10° NW 05:48:04 25° NNE 05:50:56 10° ENE visible
09 Jul -1.8 01:46:35 25° NE 01:46:35 25° NE 01:48:11 10° NE visible
09 Jul -1.3 03:19:26 10° WNW 03:22:03 22° N 03:24:45 10° NE visible
09 Jul -1.1 04:56:56 10° NW 04:59:37 22° N 05:02:19 10° ENE visible
10 Jul -1.3 00:59:17 15° ENE 00:59:17 15° ENE 00:59:54 10° ENE visible
10 Jul -1.5 02:32:07 19° NW 02:33:36 26° NNW 02:36:29 10° NE visible
10 Jul -1.0 04:08:35 10° NW 04:11:08 20° N 04:13:42 10° NE visible
10 Jul -2.3 05:45:18 10° NW 05:48:31 41° NNE 05:51:44 10° E visible
11 Jul -1.1 00:11:27 11° ENE 00:11:27 11° ENE 00:11:33 10° ENE visible
11 Jul -2.0 01:44:13 27° NW 01:45:10 32° NNW 01:48:15 10° NE visible
11 Jul -0.9 03:20:07 10° NW 03:22:38 19° N 03:25:09 10° NE visible
11 Jul -1.7 04:57:04 10° NW 05:00:07 30° NNE 05:03:09 10° E visible
11 Jul -2.9 23:17:15 10° SSW 23:20:08 27° SE 23:23:02 10° ENE visible
12 Jul -2.7 00:53:32 10° W 00:56:46 44° NNW 01:00:01 10° NE visible
12 Jul -1.0 02:31:33 10° NW 02:34:07 20° N 02:36:41 10° NE visible
12 Jul -1.3 04:08:49 10° NW 04:11:39 24° NNE 04:14:30 10° ENE visible
12 Jul -3.8 05:45:23 10° WNW 05:48:45 89° SSW 05:52:06 10° SE visible
12 Jul -2.2 22:29:48 10° S 22:31:59 17° SE 22:34:12 10° E visible
13 Jul -3.5 00:05:05 10° WSW 00:08:24 68° NNW 00:11:45 10° NE visible
13 Jul -1.2 01:42:53 10° WNW 01:45:36 22° N 01:48:19 10° NE visible
13 Jul -1.1 03:20:30 10° NW 03:23:10 21° N 03:25:49 10° ENE visible
13 Jul -3.1 04:57:05 10° NW 05:00:25 58° NNE 05:03:44 10° ESE visible
13 Jul -3.9 23:16:46 10° SW 23:20:04 75° SSE 23:23:26 10° ENE visible
